This is the latest recevied weather packets stored in our database for station/object WB4E-13. If no packets are shown the sender has not sent any weather packets the latest 10 day(s).
| Time | Temp. | Humidity | Pressure | Rain* | Wind** | Luminosity | Snow |
|---|---|---|---|---|---|---|---|
| 1777422762 | 21.11° C | 80% | 1014 hPa | 0 mm | - | - | - |
| 1777422162 | 21.11° C | 80% | 1013.7 hPa | 0 mm | - | - | - |
| 1777421562 | 21.67° C | 79% | 1013.3 hPa | 0 mm | - | - | - |
| 1777421021 | 21.67° C | 79% | 1013.2 hPa | 0 mm | - | - | - |
| 1777420962 | 21.67° C | 79% | 1013.2 hPa | 0 mm | - | - | - |
| 1777420362 | 21.67° C | 78% | 1012.7 hPa | 0 mm | - | - | - |
| 1777419761 | 21.67° C | 78% | 1012.5 hPa | 0 mm | - | - | - |
| 1777419161 | 22.22° C | 78% | 1012.5 hPa | 0 mm | - | - | - |
| 1777418561 | 22.22° C | 78% | 1012.6 hPa | 0 mm | - | - | - |
| 1777417960 | 22.22° C | 78% | 1012.3 hPa | 0 mm | - | - | - |
| 1777417361 | 22.22° C | 78% | 1011.8 hPa | 0 mm | - | - | - |
| 1777416760 | 22.22° C | 77% | 1011.9 hPa | 0 mm | - | - | - |
| 1777416160 | 22.78° C | 76% | 1012.3 hPa | 0 mm | - | - | - |
| 1777415559 | 22.78° C | 75% | 1012.4 hPa | 0 mm | - | - | - |
| 1777414959 | 22.78° C | 74% | 1012.4 hPa | 0 mm | - | - | - |
| 1777414359 | 23.33° C | 75% | 1012.5 hPa | 0 mm | - | - | - |
| 1777413759 | 23.89° C | 72% | 1012.5 hPa | 0 mm | - | - | - |
| 1777413159 | 23.89° C | 73% | 1012.2 hPa | 0 mm | - | - | - |
| 1777412560 | 24.44° C | 71% | 1011.9 hPa | 0 mm | - | - | - |
| 1777411993 | 24.44° C | 70% | 1011.9 hPa | 0 mm | - | - | - |
| 1777411959 | 24.44° C | 70% | 1011.9 hPa | 0 mm | - | - | - |
| 1777411358 | 25° C | 69% | 1011.9 hPa | 0 mm | - | - | - |
| 1777410758 | 24.44° C | 69% | 1012 hPa | 0 mm | - | - | - |
| 1777410158 | 24.44° C | 69% | 1012.7 hPa | 0 mm | - | - | - |
| 1777409557 | 24.44° C | 69% | 1013 hPa | 0 mm | - | - | - |
* Rain latest hour (hover to see other rain measurements)
** Current wind speed in m/s (hover to see current wind gust speed)